Accueil
METAR-TAF:

METAR-TAF

Aéroports :

Nakashibetsu, Japon

latitude: 43-34N, longitude: 144-58E, altitude: 66 m

Observation

Le bulletin a été fait il y a 37 minutes, à 23:30 UTC
Vent 8 kt de ouest/sud-ouest
Température -6°C
Humidité 62%
Pression 997 hPa
Visibilité 10 km ou plus
Quelques nuages à une hauteur de 2000 ft
Nuages fragmentés à une hauteur de 7000 ft

METAR: RJCN 162330Z 25008KT 9999 FEW020 BKN070 M06/M12 Q0997

Heure: 09:07 (00:07 UTC)


TAF: absent

Observations et prévisions météorologiques de plus de 4000 aéroports (messages METAR et TAF).

Les stations disponibles sont représentées par des disques jaunes et rouges sur la carte.

Passer la souris dessus pour voir le nom de la station.

Cliquer dessus pour voir les observations et prévisions météorologiques.

Pour changer de carte: cliquez sur les boutons verts avec une croix noire pour zoomer, sur le bouton vert avec un tiret pour effectuer un zoom arrière, ou sur les flèches vertes pour les cartes adjacentes.


METAR-TAF: